GFSWCAN_700_temp_285.txt.gz
Temp
-5 -5 -5 -7 -8 -9 -10 -12 -12 -12 -12 -12 -12 -11 -10 -9 -9 -11 -9 -10 -10 -10 -9 -9 -8 -8 -8 -8 -9 -8 -8 -8 -8 -9 -9 -8 -8 -8 -9 -9 -8 -10 -12 -16 -16 -16 -16 -10 -11 -11 -10 -11 -13 -14
-6 -7 -7 -8 -9 -11 -13 -13 -13 -12 -11 -11 -10 -10 -11 -10 -9 -11 -10 -10 -11 -11 -10 -9 -9 -9 -9 -9 -8 -8 -8 -8 -9 -8 -8 -8 -9 -10 -9 -9 -10 -11 -11 -10 -11 -10 -10 -11 -11 -12 -12 -13 -14 -15
-8 -8 -9 -9 -11 -11 -12 -12 -13 -12 -11 -11 -10 -10 -11 -10 -10 -10 -11 -10 -11 -11 -11 -9 -8 -8 -9 -9 -8 -9 -8 -8 -9 -9 -10 -10 -10 -10 -10 -10 -11 -11 -11 -12 -12 -10 -11 -11 -11 -12 -13 -13 -15 -16
-9 -9 -9 -9 -9 -9 -9 -10 -11 -10 -10 -10 -10 -10 -10 -10 -10 -11 -11 -11 -11 -11 -11 -9 -9 -9 -9 -9 -9 -9 -9 -9 -9 -10 -11 -12 -12 -12 -11 -11 -11 -12 -12 -11 -11 -11 -11 -12 -12 -13 -14 -14 -15 -16
-10 -10 -9 -9 -9 -9 -9 -9 -9 -10 -10 -10 -10 -11 -11 -10 -11 -11 -11 -11 -11 -11 -11 -10 -9 -9 -10 -9 -9 -9 -9 -9 -9 -10 -12 -12 -12 -13 -12 -13 -13 -12 -11 -12 -11 -11 -12 -13 -13 -13 -14 -15 -16 -17
-11 -10 -10 -10 -10 -10 -9 -10 -10 -10 -11 -12 -12 -12 -11 -11 -12 -11 -11 -10 -10 -11 -11 -11 -9 -9 -9 -9 -9 -9 -9 -9 -10 -11 -12 -13 -13 -14 -14 -14 -12 -12 -11 -11 -11 -12 -12 -13 -13 -13 -14 -15 -17 -17
-11 -11 -11 -11 -11 -11 -10 -11 -11 -12 -13 -13 -12 -12 -11 -11 -11 -11 -10 -11 -11 -11 -11 -11 -11 -9 -9 -9 -8 -8 -9 -10 -11 -13 -14 -14 -15 -15 -14 -14 -12 -13 -13 -12 -13 -13 -13 -13 -13 -14 -15 -16 -17 -18
-12 -12 -12 -11 -11 -11 -11 -11 -12 -13 -13 -12 -11 -11 -11 -11 -11 -11 -11 -11 -11 -11 -11 -11 -11 -10 -9 -9 -9 -10 -11 -12 -13 -14 -15 -15 -15 -15 -16 -13 -13 -12 -12 -12 -13 -13 -13 -13 -13 -14 -16 -17 -17 -18
-12 -12 -12 -12 -12 -12 -12 -12 -13 -13 -12 -11 -11 -11 -11 -11 -11 -10 -11 -11 -11 -11 -11 -11 -11 -10 -9 -10 -11 -12 -13 -14 -15 -15 -16 -16 -16 -15 -13 -12 -13 -12 -11 -11 -12 -13 -13 -13 -14 -16 -16 -17 -18 -18
-12 -12 -12 -12 -12 -12 -12 -12 -13 -12 -11 -11 -12 -12 -11 -11 -11 -11 -11 -11 -11 -11 -12 -10 -10 -12 -12 -12 -13 -14 -15 -15 -16 -16 -16 -17 -13 -13 -14 -13 -12 -11 -12 -12 -13 -13 -13 -14 -15 -16 -17 -18 -18 -19
-12 -12 -12 -12 -12 -12 -12 -13 -13 -12 -12 -12 -12 -12 -12 -12 -12 -11 -11 -11 -11 -11 -11 -10 -11 -11 -12 -13 -15 -15 -15 -16 -16 -16 -16 -16 -11 -12 -10 -11 -13 -12 -12 -12 -13 -13 -14 -15 -16 -17 -18 -18 -19 -19
-12 -12 -12 -12 -12 -12 -13 -13 -13 -12 -13 -13 -13 -12 -12 -12 -12 -12 -12 -12 -11 -11 -11 -11 -11 -11 -13 -14 -15 -16 -16 -16 -16 -17 -16 -14 -10 -10 -9 -10 -11 -12 -12 -13 -13 -14 -15 -16 -17 -18 -18 -19 -19 -19
-12 -12 -12 -12 -12 -13 -13 -14 -12 -12 -12 -12 -12 -12 -12 -12 -11 -11 -11 -11 -11 -11 -11 -11 -12 -13 -14 -15 -16 -16 -16 -16 -16 -16 -14 -11 -10 -10 -10 -10 -11 -12 -13 -13 -14 -15 -16 -17 -17 -18 -19 -19 -19 -20
-12 -12 -12 -13 -13 -14 -14 -13 -12 -12 -13 -13 -12 -12 -12 -11 -11 -11 -11 -11 -11 -11 -11 -12 -13 -13 -14 -15 -16 -15 -16 -16 -16 -15 -11 -10 -10 -10 -10 -11 -12 -12 -13 -14 -15 -16 -16 -17 -18 -19 -19 -20 -20 -20
-12 -12 -13 -13 -14 -14 -13 -13 -12 -12 -13 -13 -13 -12 -11 -11 -11 -11 -11 -11 -11 -11 -11 -12 -13 -14 -15 -15 -15 -15 -15 -15 -13 -11 -10 -10 -10 -11 -11 -12 -12 -12 -13 -14 -15 -16 -17 -17 -18 -19 -19 -20 -20 -20
-12 -13 -13 -14 -14 -13 -13 -13 -12 -13 -13 -13 -12 -11 -10 -11 -11 -11 -11 -11 -11 -11 -12 -13 -14 -15 -15 -15 -14 -14 -14 -12 -11 -10 -10 -10 -11 -11 -11 -12 -12 -13 -13 -14 -15 -16 -17 -17 -18 -19 -20 -20 -20 -21
-12 -12 -13 -14 -14 -13 -13 -12 -12 -13 -13 -12 -11 -11 -11 -11 -12 -12 -12 -12 -12 -11 -12 -13 -14 -14 -14 -14 -13 -13 -11 -11 -10 -10 -10 -11 -11 -12 -12 -12 -12 -13 -14 -15 -16 -16 -16 -17 -18 -19 -20 -20 -21 -21
-12 -13 -14 -13 -13 -12 -12 -13 -13 -13 -13 -12 -11 -11 -11 -12 -12 -12 -12 -12 -12 -12 -12 -13 -13 -14 -13 -13 -12 -11 -11 -10 -10 -10 -11 -11 -12 -12 -12 -12 -13 -14 -14 -15 -15 -15 -16 -17 -18 -19 -20 -21 -21 -21
-13 -13 -13 -13 -12 -12 -12 -12 -13 -13 -12 -12 -11 -11 -12 -11 -11 -12 -12 -12 -12 -12 -13 -14 -14 -13 -13 -12 -12 -11 -10 -10 -11 -11 -11 -12 -12 -12 -12 -13 -13 -14 -14 -14 -15 -16 -17 -17 -18 -20 -20 -21 -21 -21
-13 -13 -12 -13 -13 -13 -13 -13 -13 -13 -12 -11 -11 -11 -11 -12 -12 -12 -12 -12 -12 -13 -13 -14 -13 -13 -13 -12 -11 -10 -10 -11 -11 -12 -12 -12 -12 -13 -13 -13 -13 -14 -14 -15 -15 -16 -17 -18 -19 -20 -21 -21 -21 -21
-12 -12 -12 -13 -13 -13 -13 -13 -13 -13 -12 -12 -11 -11 -11 -11 -11 -11 -12 -12 -12 -12 -12 -12 -13 -13 -12 -12 -11 -11 -11 -11 -11 -11 -12 -13 -13 -13 -13 -14 -14 -14 -14 -15 -16 -16 -17 -18 -19 -20 -21 -21 -22 -22
-12 -12 -12 -12 -13 -13 -13 -13 -13 -13 -12 -12 -12 -11 -11 -11 -11 -11 -11 -11 -11 -11 -12 -13 -14 -13 -12 -12 -11 -11 -11 -11 -12 -12 -13 -13 -13 -14 -14 -14 -14 -15 -15 -15 -16 -17 -17 -18 -19 -20 -21 -21 -22 -22
-12 -12 -12 -13 -13 -13 -13 -13 -13 -12 -13 -12 -12 -12 -12 -12 -12 -12 -12 -11 -11 -12 -12 -13 -13 -13 -12 -12 -11 -12 -12 -12 -12 -13 -13 -13 -14 -14 -14 -14 -15 -15 -15 -16 -16 -17 -18 -19 -19 -21 -21 -21 -22 -22
-12 -12 -12 -13 -13 -13 -13 -12 -12 -12 -12 -12 -12 -12 -12 -12 -11 -12 -12 -12 -12 -12 -12 -13 -13 -12 -12 -12 -12 -12 -12 -12 -13 -13 -13 -14 -14 -14 -15 -15 -15 -16 -16 -16 -17 -17 -18 -19 -20 -21 -21 -21 -22 -22
-13 -13 -12 -13 -13 -13 -13 -12 -12 -12 -12 -12 -12 -13 -12 -12 -12 -12 -13 -13 -13 -13 -12 -12 -12 -12 -12 -12 -12 -12 -12 -13 -13 -13 -14 -14 -14 -15 -15 -16 -16 -16 -16 -17 -17 -18 -19 -19 -20 -20 -21 -21 -22 -22
-12 -12 -12 -12 -12 -12 -12 -12 -12 -12 -12 -13 -12 -13 -13 -13 -12 -12 -13 -14 -13 -12 -12 -12 -12 -11 -11 -12 -12 -13 -13 -13 -14 -14 -14 -14 -15 -15 -16 -16 -16 -17 -17 -17 -18 -18 -19 -19 -20 -21 -21 -22 -22 -22
-12 -12 -12 -12 -12 -12 -12 -12 -12 -12 -13 -13 -13 -13 -13 -12 -12 -13 -14 -14 -13 -13 -12 -12 -12 -11 -12 -12 -12 -12 -12 -13 -13 -14 -14 -15 -15 -16 -16 -16 -17 -17 -17 -18 -18 -19 -19 -20 -20 -21 -21 -22 -22 -23
-11 -11 -11 -11 -11 -11 -11 -12 -12 -12 -13 -13 -13 -13 -13 -12 -13 -13 -13 -13 -13 -13 -12 -12 -11 -11 -11 -11 -12 -12 -13 -13 -13 -14 -15 -15 -16 -16 -17 -17 -17 -18 -18 -18 -18 -19 -20 -20 -21 -21 -22 -22 -23 -23
-11 -11 -11 -11 -11 -11 -12 -12 -12 -12 -13 -13 -13 -13 -13 -13 -13 -12 -12 -12 -12 -12 -11 -11 -11 -11 -11 -11 -11 -12 -13 -13 -14 -15 -15 -16 -16 -17 -17 -17 -18 -18 -18 -19 -19 -19 -20 -20 -21 -22 -22 -23 -23 -24
-12 -11 -11 -11 -12 -12 -12 -12 -12 -13 -13 -13 -14 -13 -13 -13 -12 -12 -11 -11 -11 -12 -11 -10 -11 -11 -11 -12 -12 -13 -14 -14 -15 -15 -16 -16 -17 -17 -17 -18 -18 -18 -19 -19 -20 -20 -20 -21 -22 -22 -22 -23 -24 -24
-12 -12 -12 -12 -12 -12 -12 -12 -12 -12 -13 -13 -13 -13 -13 -13 -12 -12 -12 -11 -11 -11 -11 -11 -11 -11 -12 -12 -13 -13 -14 -15 -15 -16 -16 -16 -17 -17 -18 -18 -18 -19 -19 -20 -20 -21 -21 -21 -22 -22 -23 -23 -24 -24
-12 -12 -12 -12 -12 -12 -12 -12 -12 -12 -12 -13 -13 -13 -13 -12 -12 -12 -12 -12 -11 -11 -12 -12 -12 -12 -13 -13 -14 -14 -15 -15 -15 -16 -16 -17 -17 -18 -18 -18 -19 -19 -20 -20 -21 -21 -22 -22 -22 -23 -23 -23 -24 -24
-13 -13 -13 -13 -12 -12 -12 -12 -12 -11 -12 -12 -12 -12 -12 -12 -12 -12 -12 -12 -12 -13 -13 -13 -13 -13 -14 -14 -14 -15 -15 -15 -16 -16 -17 -17 -18 -18 -18 -19 -19 -20 -20 -21 -21 -22 -22 -22 -23 -23 -23 -23 -24 -24

GFSWCAN_700_temp_291.txt.gz
Temp
-7 -7 -7 -7 -7 -7 -7 -7 -8 -9 -11 -12 -13 -12 -11 -10 -10 -11 -11 -12 -11 -12 -11 -11 -11 -11 -11 -11 -11 -11 -11 -11 -10 -10 -10 -10 -9 -9 -9 -9 -10 -10 -11 -13 -14 -13 -12 -9 -10 -10 -10 -11 -13 -12
-7 -8 -8 -8 -7 -8 -9 -9 -10 -10 -11 -11 -10 -10 -10 -10 -11 -11 -11 -12 -12 -12 -11 -11 -11 -11 -11 -11 -11 -11 -11 -11 -11 -12 -11 -11 -10 -10 -10 -10 -10 -11 -10 -10 -11 -9 -9 -10 -10 -11 -11 -12 -14 -14
-8 -8 -8 -8 -8 -9 -10 -10 -10 -10 -10 -10 -10 -10 -10 -11 -12 -12 -13 -12 -12 -12 -11 -11 -11 -11 -11 -11 -11 -12 -11 -11 -11 -11 -11 -11 -11 -10 -11 -11 -10 -11 -11 -11 -11 -10 -11 -11 -11 -12 -12 -13 -14 -14
-8 -8 -8 -8 -10 -11 -11 -11 -11 -10 -10 -10 -10 -10 -11 -12 -12 -12 -13 -13 -13 -13 -12 -11 -11 -10 -10 -10 -11 -11 -11 -11 -11 -11 -11 -11 -12 -12 -12 -12 -11 -12 -12 -12 -12 -12 -12 -12 -13 -13 -13 -14 -15 -15
-9 -9 -9 -10 -11 -13 -12 -12 -11 -11 -11 -11 -10 -11 -11 -12 -12 -13 -13 -13 -13 -13 -12 -12 -11 -11 -10 -10 -10 -10 -11 -11 -12 -12 -12 -12 -12 -12 -12 -12 -12 -12 -11 -13 -13 -13 -13 -13 -13 -14 -14 -14 -15 -16
-9 -9 -10 -11 -13 -13 -13 -12 -12 -12 -11 -11 -11 -11 -12 -12 -13 -13 -12 -11 -12 -13 -12 -12 -11 -10 -10 -11 -10 -10 -10 -11 -12 -12 -12 -12 -12 -13 -14 -14 -13 -13 -13 -14 -13 -14 -14 -14 -14 -14 -14 -14 -15 -16
-10 -11 -11 -13 -13 -13 -13 -13 -12 -12 -11 -11 -12 -12 -12 -12 -12 -12 -12 -12 -12 -12 -12 -12 -11 -11 -10 -10 -10 -11 -11 -11 -12 -12 -13 -13 -13 -14 -15 -14 -13 -14 -14 -15 -15 -15 -15 -15 -14 -14 -14 -14 -15 -16
-12 -12 -12 -13 -13 -13 -13 -13 -13 -12 -12 -12 -12 -12 -12 -11 -11 -11 -12 -12 -12 -12 -12 -12 -11 -11 -11 -11 -11 -11 -12 -12 -13 -14 -14 -15 -15 -16 -16 -14 -14 -14 -14 -14 -15 -15 -15 -15 -15 -14 -15 -15 -16 -17
-12 -12 -12 -13 -13 -14 -13 -13 -13 -12 -12 -12 -12 -12 -11 -11 -11 -11 -11 -11 -11 -12 -12 -12 -12 -12 -12 -12 -12 -13 -13 -14 -15 -16 -16 -15 -16 -15 -15 -15 -14 -14 -14 -14 -13 -13 -14 -14 -14 -15 -15 -16 -17 -17
-12 -12 -12 -13 -13 -13 -13 -13 -13 -12 -12 -12 -12 -12 -11 -11 -11 -11 -10 -10 -11 -11 -13 -12 -12 -13 -13 -13 -13 -14 -15 -15 -16 -16 -16 -15 -13 -14 -16 -17 -15 -15 -13 -13 -13 -13 -14 -14 -15 -16 -16 -17 -17 -18
-11 -11 -12 -13 -13 -13 -13 -13 -13 -13 -13 -13 -13 -12 -12 -12 -12 -11 -11 -12 -12 -12 -12 -11 -12 -12 -12 -13 -14 -15 -15 -16 -16 -16 -15 -15 -12 -13 -13 -13 -13 -14 -14 -14 -13 -14 -14 -15 -15 -16 -17 -17 -18 -18
-11 -11 -12 -12 -13 -13 -13 -13 -13 -12 -13 -13 -13 -12 -12 -11 -11 -12 -12 -12 -12 -12 -11 -12 -12 -13 -13 -14 -15 -16 -16 -16 -16 -15 -15 -13 -12 -12 -12 -12 -12 -13 -13 -14 -14 -14 -14 -15 -16 -16 -17 -17 -18 -19
-11 -11 -12 -12 -13 -13 -13 -13 -13 -13 -14 -14 -13 -13 -12 -11 -11 -11 -11 -11 -12 -12 -12 -12 -12 -13 -14 -14 -15 -16 -16 -16 -15 -15 -14 -12 -11 -11 -11 -12 -12 -13 -13 -13 -14 -14 -15 -15 -16 -16 -17 -18 -18 -19
-11 -12 -12 -12 -13 -13 -13 -13 -13 -13 -14 -14 -13 -12 -12 -11 -11 -11 -11 -11 -12 -12 -12 -12 -12 -13 -14 -15 -15 -15 -15 -15 -15 -14 -12 -12 -11 -11 -11 -12 -12 -12 -13 -13 -14 -14 -14 -15 -16 -16 -17 -18 -19 -20
-12 -12 -12 -12 -13 -13 -13 -13 -13 -14 -15 -14 -13 -12 -12 -11 -11 -11 -11 -11 -12 -12 -12 -12 -12 -13 -14 -15 -15 -15 -15 -14 -13 -12 -12 -11 -11 -11 -11 -11 -12 -13 -13 -13 -14 -14 -14 -15 -15 -17 -18 -18 -19 -20
-13 -13 -13 -13 -12 -13 -13 -13 -14 -15 -15 -14 -13 -11 -11 -11 -11 -11 -11 -12 -12 -12 -12 -13 -13 -14 -14 -14 -14 -14 -14 -12 -12 -12 -11 -11 -11 -11 -11 -12 -12 -13 -13 -13 -14 -14 -14 -15 -16 -17 -17 -18 -19 -20
-13 -13 -13 -13 -12 -12 -13 -13 -15 -15 -15 -13 -12 -11 -11 -11 -11 -11 -12 -12 -12 -13 -13 -13 -13 -13 -13 -14 -13 -13 -12 -12 -12 -11 -11 -11 -11 -11 -12 -12 -12 -13 -13 -13 -13 -14 -15 -15 -16 -17 -18 -18 -19 -20
-13 -13 -13 -12 -12 -13 -13 -14 -15 -15 -13 -12 -12 -11 -11 -11 -11 -11 -12 -12 -13 -13 -13 -13 -13 -13 -13 -12 -12 -12 -12 -12 -11 -10 -10 -11 -11 -12 -12 -12 -12 -13 -13 -13 -14 -14 -15 -16 -16 -17 -18 -19 -19 -20
-12 -12 -12 -12 -12 -12 -13 -15 -15 -14 -13 -12 -11 -11 -11 -11 -11 -12 -12 -12 -13 -13 -13 -14 -13 -13 -12 -12 -12 -13 -12 -12 -11 -11 -11 -11 -12 -12 -12 -12 -13 -13 -14 -14 -14 -15 -15 -16 -17 -17 -18 -19 -20 -20
-12 -12 -12 -12 -12 -13 -14 -14 -14 -13 -12 -11 -11 -11 -11 -11 -11 -11 -11 -12 -12 -13 -13 -12 -11 -11 -12 -13 -13 -13 -13 -12 -11 -11 -11 -12 -12 -12 -13 -13 -13 -14 -14 -14 -15 -15 -16 -16 -17 -18 -18 -19 -20 -21
-12 -12 -12 -12 -12 -13 -14 -14 -13 -12 -12 -12 -11 -12 -11 -11 -11 -11 -12 -12 -12 -11 -11 -12 -12 -13 -13 -14 -14 -13 -13 -12 -11 -12 -12 -12 -13 -13 -13 -14 -14 -14 -14 -15 -15 -16 -16 -17 -17 -18 -19 -20 -20 -21
-12 -12 -12 -12 -13 -13 -14 -13 -12 -12 -12 -12 -12 -12 -12 -11 -11 -11 -11 -12 -11 -11 -12 -12 -12 -13 -13 -13 -13 -13 -13 -12 -12 -12 -12 -12 -13 -13 -13 -14 -14 -15 -15 -15 -16 -16 -17 -17 -18 -18 -19 -20 -20 -21
-12 -12 -13 -13 -13 -13 -12 -12 -13 -12 -13 -13 -12 -12 -12 -12 -12 -12 -12 -11 -12 -12 -12 -13 -13 -13 -13 -13 -13 -13 -12 -12 -12 -12 -12 -13 -13 -13 -14 -14 -15 -15 -16 -16 -17 -17 -17 -18 -18 -19 -19 -20 -20 -21
-13 -13 -13 -13 -13 -13 -12 -13 -13 -13 -13 -12 -12 -12 -12 -12 -12 -12 -12 -12 -13 -13 -13 -13 -13 -13 -13 -13 -13 -12 -12 -12 -12 -12 -13 -13 -13 -14 -14 -15 -15 -16 -16 -17 -17 -17 -18 -18 -19 -19 -20 -20 -21 -21
-13 -13 -12 -12 -12 -13 -13 -13 -12 -13 -13 -13 -13 -13 -12 -13 -13 -13 -13 -13 -13 -14 -14 -14 -13 -13 -13 -13 -12 -12 -12 -12 -13 -13 -13 -13 -14 -14 -15 -15 -16 -16 -17 -17 -17 -18 -18 -19 -19 -19 -20 -20 -21 -21
-12 -12 -12 -12 -13 -13 -13 -12 -12 -12 -12 -13 -13 -13 -13 -13 -13 -13 -13 -13 -14 -14 -14 -14 -13 -13 -13 -13 -13 -12 -12 -12 -13 -13 -14 -14 -14 -15 -15 -16 -16 -17 -17 -17 -18 -18 -19 -19 -19 -20 -20 -21 -21 -22
-12 -12 -12 -12 -12 -13 -12 -12 -12 -13 -13 -13 -13 -13 -13 -13 -13 -13 -13 -13 -14 -13 -13 -13 -13 -13 -13 -13 -13 -12 -12 -13 -13 -13 -14 -14 -15 -15 -16 -16 -17 -17 -17 -18 -18 -19 -19 -19 -20 -20 -21 -21 -22 -22
-12 -12 -12 -12 -12 -12 -12 -13 -13 -12 -12 -13 -13 -13 -13 -13 -13 -14 -14 -14 -13 -13 -12 -13 -13 -13 -13 -13 -13 -13 -13 -13 -14 -14 -14 -15 -15 -16 -16 -16 -17 -17 -18 -18 -19 -19 -19 -20 -20 -20 -21 -21 -22 -22
-12 -12 -12 -12 -12 -12 -12 -12 -12 -12 -13 -13 -14 -14 -14 -14 -14 -14 -14 -13 -13 -12 -12 -13 -13 -13 -13 -12 -13 -13 -13 -13 -14 -14 -15 -15 -15 -16 -16 -17 -17 -18 -18 -18 -19 -19 -20 -20 -20 -21 -21 -22 -22 -23
-12 -12 -12 -12 -12 -12 -12 -12 -12 -13 -13 -13 -14 -14 -14 -14 -14 -13 -13 -13 -12 -12 -12 -12 -13 -13 -13 -13 -13 -13 -13 -14 -14 -15 -15 -16 -16 -17 -17 -17 -17 -18 -18 -19 -19 -20 -20 -20 -21 -21 -22 -22 -23 -23
-13 -13 -12 -12 -12 -12 -12 -13 -13 -12 -12 -13 -13 -13 -13 -13 -13 -13 -13 -13 -12 -12 -12 -12 -12 -12 -13 -13 -13 -13 -13 -14 -14 -15 -15 -16 -16 -17 -17 -17 -18 -18 -19 -19 -20 -20 -21 -21 -21 -22 -22 -23 -23 -23
-13 -13 -13 -13 -13 -13 -13 -13 -13 -13 -12 -12 -12 -13 -13 -13 -13 -13 -13 -13 -12 -12 -12 -12 -13 -13 -13 -13 -14 -14 -14 -14 -15 -15 -16 -16 -17 -17 -17 -18 -18 -19 -19 -20 -20 -21 -21 -21 -22 -22 -23 -23 -23 -24
-14 -13 -13 -13 -13 -13 -13 -13 -13 -13 -13 -13 -13 -13 -13 -13 -13 -13 -13 -13 -13 -13 -13 -13 -13 -13 -14 -14 -14 -14 -15 -15 -15 -16 -16 -17 -17 -17 -18 -18 -19 -19 -20 -20 -21 -21 -22 -22 -22 -23 -23 -23 -24 -24

GFSWCAN_700_temp_294.txt.gz
Temp
-7 -7 -7 -7 -7 -7 -7 -8 -8 -8 -9 -10 -13 -12 -13 -12 -12 -12 -12 -13 -13 -13 -12 -11 -11 -11 -12 -11 -11 -11 -11 -11 -11 -11 -11 -10 -10 -10 -10 -9 -10 -10 -10 -11 -13 -13 -13 -9 -10 -11 -10 -11 -12 -12
-7 -7 -7 -7 -8 -8 -8 -8 -8 -10 -11 -11 -13 -13 -13 -13 -12 -12 -12 -13 -13 -13 -11 -11 -11 -12 -12 -12 -12 -12 -12 -12 -12 -12 -11 -11 -11 -11 -11 -11 -10 -10 -10 -10 -11 -9 -9 -10 -11 -11 -12 -12 -13 -13
-8 -8 -8 -8 -8 -9 -9 -9 -11 -12 -12 -12 -12 -13 -13 -13 -13 -13 -13 -13 -13 -13 -11 -11 -11 -12 -11 -12 -12 -12 -11 -11 -11 -11 -12 -11 -12 -11 -11 -11 -11 -11 -11 -11 -11 -10 -11 -12 -12 -12 -13 -13 -14 -14
-8 -8 -8 -9 -9 -9 -10 -11 -13 -13 -13 -12 -12 -12 -13 -12 -13 -13 -13 -13 -13 -13 -13 -10 -11 -11 -11 -11 -12 -12 -12 -12 -12 -12 -12 -12 -12 -12 -12 -12 -12 -12 -12 -11 -12 -12 -12 -13 -13 -13 -13 -14 -14 -14
-8 -8 -9 -9 -10 -10 -11 -13 -14 -14 -13 -13 -12 -13 -13 -12 -13 -13 -12 -13 -13 -14 -13 -11 -11 -11 -11 -11 -10 -11 -11 -12 -12 -12 -12 -12 -12 -13 -13 -13 -12 -12 -13 -13 -13 -13 -13 -14 -14 -14 -14 -14 -14 -15
-8 -9 -9 -10 -11 -11 -13 -14 -14 -14 -14 -13 -13 -12 -12 -13 -13 -13 -12 -12 -12 -12 -13 -12 -11 -11 -10 -10 -10 -11 -11 -11 -11 -12 -12 -13 -12 -13 -14 -14 -13 -14 -13 -14 -14 -14 -14 -14 -15 -15 -15 -15 -15 -15
-9 -10 -10 -11 -12 -13 -13 -14 -14 -14 -13 -13 -12 -13 -13 -14 -13 -13 -13 -12 -12 -13 -13 -13 -12 -12 -11 -11 -11 -11 -12 -12 -12 -13 -13 -13 -14 -14 -15 -15 -15 -15 -15 -14 -14 -15 -15 -15 -15 -15 -15 -15 -15 -16
-10 -10 -11 -12 -13 -12 -13 -14 -14 -14 -13 -13 -13 -13 -12 -12 -12 -12 -12 -12 -12 -13 -13 -13 -12 -12 -11 -11 -12 -12 -13 -13 -13 -14 -15 -15 -15 -16 -16 -15 -15 -15 -14 -14 -14 -15 -15 -15 -15 -15 -15 -15 -16 -16
-10 -11 -12 -12 -12 -13 -13 -14 -13 -13 -13 -13 -13 -12 -12 -12 -11 -11 -12 -12 -12 -12 -13 -13 -12 -12 -12 -12 -12 -13 -13 -15 -16 -16 -16 -15 -15 -14 -15 -16 -16 -15 -14 -14 -13 -14 -14 -15 -15 -15 -15 -15 -16 -17
-11 -11 -12 -12 -12 -13 -13 -13 -13 -13 -13 -13 -13 -13 -12 -12 -12 -12 -12 -12 -12 -12 -13 -12 -12 -12 -12 -13 -13 -14 -15 -15 -16 -16 -16 -15 -13 -14 -15 -15 -15 -15 -14 -14 -13 -13 -14 -14 -14 -15 -15 -16 -17 -17
-11 -11 -12 -12 -12 -13 -13 -13 -13 -13 -13 -13 -13 -13 -13 -12 -12 -12 -12 -12 -12 -12 -12 -11 -12 -12 -12 -13 -14 -15 -15 -15 -16 -15 -15 -14 -12 -13 -13 -13 -13 -13 -13 -14 -14 -14 -14 -14 -15 -15 -16 -16 -17 -18
-11 -11 -12 -12 -12 -13 -13 -13 -13 -13 -13 -13 -13 -13 -12 -12 -12 -12 -12 -12 -11 -11 -11 -12 -12 -12 -12 -13 -14 -16 -16 -16 -15 -15 -15 -13 -12 -12 -12 -12 -12 -13 -13 -13 -14 -14 -14 -14 -15 -16 -16 -16 -17 -18
-12 -12 -12 -12 -12 -13 -13 -13 -13 -13 -13 -14 -14 -13 -12 -12 -12 -12 -12 -11 -11 -12 -12 -12 -12 -12 -13 -14 -15 -15 -16 -15 -15 -15 -13 -12 -12 -11 -11 -12 -12 -13 -13 -13 -13 -14 -14 -15 -15 -15 -16 -16 -17 -17
-12 -12 -12 -12 -12 -13 -13 -13 -13 -13 -13 -14 -14 -13 -12 -12 -12 -11 -11 -11 -12 -12 -12 -12 -12 -13 -13 -14 -15 -15 -15 -15 -15 -14 -12 -12 -11 -11 -11 -12 -12 -12 -13 -13 -13 -14 -14 -14 -15 -15 -15 -16 -17 -17
-12 -12 -13 -12 -12 -13 -13 -13 -13 -13 -13 -14 -14 -13 -12 -12 -12 -11 -12 -12 -12 -12 -12 -12 -12 -13 -14 -14 -15 -15 -15 -14 -13 -12 -12 -12 -11 -11 -11 -12 -12 -12 -13 -13 -13 -13 -14 -14 -14 -14 -15 -16 -17 -18
-13 -13 -13 -13 -13 -13 -13 -13 -13 -13 -14 -14 -13 -12 -12 -11 -11 -11 -11 -12 -12 -13 -13 -13 -13 -13 -14 -14 -14 -14 -14 -12 -12 -11 -11 -11 -11 -11 -12 -12 -12 -12 -13 -13 -13 -13 -14 -14 -14 -15 -15 -16 -17 -18
-13 -13 -13 -13 -13 -13 -13 -13 -13 -13 -14 -14 -13 -12 -12 -11 -11 -11 -11 -12 -12 -13 -13 -13 -13 -13 -13 -14 -13 -13 -12 -12 -11 -11 -11 -11 -11 -11 -11 -12 -12 -12 -13 -13 -13 -14 -14 -14 -14 -15 -16 -16 -17 -18
-13 -13 -13 -13 -13 -13 -13 -13 -13 -13 -13 -13 -13 -12 -12 -11 -11 -11 -12 -12 -13 -13 -13 -14 -14 -13 -13 -12 -12 -12 -12 -12 -12 -12 -11 -11 -11 -11 -12 -12 -12 -13 -13 -13 -14 -14 -14 -14 -15 -15 -16 -17 -17 -18
-12 -13 -13 -13 -13 -13 -13 -13 -13 -13 -13 -13 -12 -12 -11 -11 -11 -12 -12 -12 -13 -13 -13 -14 -13 -12 -12 -12 -12 -13 -13 -13 -12 -12 -11 -11 -11 -12 -12 -13 -13 -13 -13 -14 -14 -14 -15 -15 -15 -16 -16 -17 -18 -19
-13 -13 -13 -13 -13 -13 -13 -13 -12 -13 -12 -12 -11 -11 -11 -11 -12 -12 -12 -12 -12 -13 -13 -12 -11 -12 -12 -13 -13 -13 -13 -13 -13 -12 -12 -12 -12 -12 -13 -13 -13 -14 -14 -14 -15 -15 -15 -15 -16 -16 -17 -17 -18 -19
-12 -13 -13 -13 -13 -13 -13 -12 -12 -12 -12 -12 -11 -11 -12 -12 -12 -12 -12 -12 -12 -12 -11 -12 -13 -13 -13 -14 -14 -14 -13 -13 -13 -12 -12 -12 -13 -13 -13 -14 -14 -14 -14 -15 -15 -15 -16 -16 -16 -17 -17 -18 -18 -19
-12 -13 -12 -13 -13 -13 -13 -12 -12 -12 -12 -12 -12 -12 -12 -12 -12 -11 -12 -12 -11 -11 -12 -12 -13 -13 -13 -13 -13 -13 -13 -13 -13 -12 -12 -12 -12 -13 -13 -13 -14 -14 -15 -15 -16 -16 -16 -16 -17 -17 -18 -18 -19 -19
-12 -13 -13 -13 -13 -13 -13 -13 -13 -12 -13 -12 -12 -12 -12 -12 -12 -12 -12 -11 -12 -13 -13 -13 -13 -13 -13 -13 -13 -13 -13 -13 -13 -12 -13 -13 -13 -13 -14 -14 -14 -15 -15 -16 -16 -16 -17 -17 -18 -18 -18 -19 -19 -20
-13 -13 -13 -13 -13 -13 -13 -13 -12 -12 -12 -12 -12 -13 -13 -13 -12 -12 -12 -12 -13 -13 -14 -14 -14 -14 -13 -13 -13 -13 -13 -13 -13 -13 -13 -13 -13 -14 -14 -14 -15 -15 -16 -16 -16 -17 -17 -18 -18 -18 -19 -19 -20 -20
-13 -13 -13 -13 -13 -13 -13 -12 -12 -13 -13 -13 -13 -13 -13 -13 -13 -13 -13 -13 -13 -13 -14 -13 -14 -13 -13 -13 -13 -13 -13 -13 -13 -13 -14 -14 -14 -14 -14 -15 -15 -16 -16 -16 -17 -17 -18 -18 -18 -19 -19 -19 -20 -20
-12 -13 -13 -13 -13 -13 -13 -13 -13 -13 -13 -13 -13 -13 -13 -13 -14 -13 -13 -13 -13 -14 -14 -14 -13 -14 -13 -14 -14 -13 -13 -13 -13 -13 -14 -14 -14 -14 -15 -15 -16 -16 -16 -17 -17 -18 -18 -18 -19 -19 -19 -20 -20 -21
-12 -12 -12 -13 -13 -13 -13 -13 -13 -13 -13 -13 -13 -13 -13 -13 -13 -13 -14 -14 -14 -14 -14 -13 -13 -14 -14 -14 -13 -13 -13 -13 -13 -13 -14 -14 -14 -15 -15 -16 -16 -16 -17 -17 -17 -18 -18 -19 -19 -19 -20 -20 -21 -21
-12 -12 -12 -12 -12 -13 -13 -13 -13 -13 -13 -13 -13 -13 -13 -13 -13 -14 -14 -14 -14 -13 -13 -12 -13 -13 -13 -14 -14 -13 -13 -13 -14 -14 -14 -15 -15 -15 -15 -16 -16 -17 -17 -17 -18 -18 -18 -19 -19 -20 -20 -21 -21 -22
-12 -12 -12 -12 -12 -12 -12 -12 -13 -13 -13 -13 -13 -14 -14 -14 -14 -14 -14 -13 -13 -13 -12 -13 -13 -13 -13 -13 -14 -14 -14 -14 -14 -14 -14 -15 -15 -15 -16 -16 -16 -17 -17 -18 -18 -18 -19 -19 -20 -20 -21 -21 -22 -22
-12 -13 -12 -12 -12 -13 -12 -13 -13 -13 -13 -13 -13 -13 -13 -14 -14 -14 -13 -13 -13 -12 -12 -13 -13 -13 -13 -14 -13 -14 -14 -14 -14 -14 -15 -15 -16 -16 -16 -16 -17 -17 -18 -18 -18 -19 -19 -20 -20 -21 -21 -22 -22 -23
-13 -13 -13 -13 -13 -13 -13 -13 -13 -13 -13 -13 -13 -13 -13 -13 -13 -13 -13 -13 -12 -12 -12 -12 -13 -13 -13 -13 -13 -13 -14 -14 -14 -14 -15 -16 -16 -16 -17 -17 -17 -18 -18 -19 -19 -19 -20 -20 -21 -21 -22 -22 -23 -23
-13 -13 -13 -13 -13 -13 -13 -13 -13 -13 -13 -13 -13 -12 -12 -13 -13 -13 -13 -13 -13 -13 -12 -12 -12 -13 -13 -13 -14 -14 -14 -14 -14 -15 -16 -16 -16 -17 -17 -18 -18 -18 -19 -19 -20 -20 -20 -21 -21 -22 -22 -23 -23 -24
-14 -14 -14 -14 -14 -13 -14 -14 -13 -13 -13 -13 -13 -13 -13 -13 -13 -13 -13 -13 -14 -14 -14 -14 -14 -14 -14 -14 -14 -14 -15 -15 -16 -16 -16 -17 -17 -18 -18 -18 -19 -19 -20 -20 -20 -21 -21 -21 -22 -22 -23 -23 -24 -24

GFSWCAN_700_temp_300.txt.gz
Temp
-5 -5 -6 -6 -6 -6 -6 -7 -7 -7 -7 -7 -8 -9 -10 -13 -13 -13 -13 -13 -13 -13 -12 -12 -12 -12 -13 -13 -13 -13 -13 -12 -12 -13 -13 -12 -12 -12 -12 -11 -11 -11 -11 -11 -12 -13 -14 -10 -11 -11 -11 -12 -12 -12
-6 -6 -6 -6 -7 -7 -7 -7 -7 -7 -8 -8 -9 -10 -13 -14 -13 -13 -13 -13 -13 -13 -12 -12 -12 -12 -13 -13 -14 -13 -13 -13 -13 -13 -13 -12 -12 -12 -11 -13 -12 -12 -11 -11 -12 -11 -11 -11 -11 -12 -12 -12 -12 -12
-7 -7 -6 -7 -7 -7 -7 -8 -8 -8 -8 -9 -10 -12 -13 -13 -14 -13 -13 -13 -13 -13 -11 -11 -11 -12 -12 -12 -13 -13 -13 -13 -12 -13 -13 -12 -12 -12 -12 -12 -12 -12 -12 -12 -12 -11 -12 -12 -12 -13 -12 -13 -13 -13
-7 -7 -7 -7 -7 -8 -8 -9 -9 -9 -10 -11 -12 -13 -13 -14 -14 -14 -13 -14 -14 -14 -13 -10 -11 -12 -11 -12 -12 -12 -12 -12 -12 -13 -13 -13 -13 -13 -12 -12 -13 -13 -13 -13 -12 -12 -13 -13 -13 -13 -13 -14 -14 -14
-7 -7 -8 -8 -9 -9 -10 -11 -11 -12 -12 -13 -13 -14 -13 -13 -14 -14 -14 -14 -14 -14 -13 -12 -11 -11 -11 -11 -12 -11 -11 -12 -12 -12 -13 -13 -13 -13 -13 -13 -13 -13 -13 -14 -14 -14 -14 -14 -14 -14 -14 -14 -14 -15
-9 -9 -10 -10 -10 -11 -12 -12 -14 -14 -14 -14 -14 -14 -14 -14 -14 -14 -14 -13 -13 -14 -14 -14 -11 -10 -10 -10 -11 -12 -12 -13 -12 -13 -13 -13 -14 -14 -14 -15 -14 -14 -14 -14 -14 -14 -14 -15 -15 -15 -14 -14 -15 -15
-10 -10 -10 -11 -11 -12 -14 -14 -14 -14 -14 -14 -14 -14 -13 -14 -14 -14 -14 -14 -14 -14 -14 -14 -12 -10 -11 -11 -11 -12 -12 -12 -13 -14 -14 -14 -14 -15 -15 -15 -15 -15 -15 -15 -15 -15 -15 -16 -15 -16 -15 -15 -15 -15
-11 -11 -11 -11 -12 -13 -14 -14 -14 -14 -14 -14 -14 -14 -14 -13 -14 -14 -14 -14 -14 -14 -14 -14 -12 -11 -11 -12 -12 -12 -12 -13 -13 -15 -15 -14 -15 -15 -14 -15 -16 -16 -15 -15 -14 -14 -14 -15 -15 -15 -15 -15 -15 -15
-12 -12 -12 -12 -13 -13 -13 -14 -14 -14 -14 -14 -14 -14 -13 -14 -13 -14 -13 -13 -13 -13 -14 -13 -12 -12 -11 -12 -13 -13 -13 -14 -14 -14 -14 -14 -13 -13 -14 -15 -15 -14 -14 -14 -14 -14 -14 -14 -14 -14 -15 -15 -15 -15
-13 -13 -13 -12 -13 -13 -13 -13 -14 -14 -14 -14 -14 -13 -13 -13 -14 -14 -13 -13 -13 -13 -14 -12 -11 -12 -13 -13 -13 -14 -15 -15 -15 -14 -14 -13 -12 -13 -13 -13 -13 -13 -13 -13 -13 -14 -14 -14 -14 -14 -14 -15 -15 -15
-12 -13 -13 -12 -12 -13 -13 -13 -13 -14 -14 -14 -13 -13 -13 -14 -14 -14 -13 -13 -13 -13 -12 -12 -12 -13 -13 -13 -14 -14 -14 -15 -15 -14 -14 -13 -12 -13 -12 -12 -13 -13 -13 -13 -13 -13 -13 -13 -14 -14 -14 -14 -15 -15
-12 -13 -13 -12 -12 -12 -12 -13 -13 -14 -13 -13 -13 -13 -13 -14 -14 -14 -13 -13 -13 -12 -12 -12 -12 -13 -13 -13 -14 -15 -15 -15 -15 -14 -14 -12 -12 -12 -12 -12 -12 -12 -12 -13 -13 -13 -13 -13 -13 -14 -14 -15 -15 -16
-12 -12 -13 -13 -12 -12 -12 -13 -13 -13 -13 -13 -13 -13 -13 -14 -14 -13 -13 -12 -12 -12 -12 -13 -13 -13 -13 -13 -14 -15 -15 -15 -15 -15 -13 -12 -12 -11 -11 -12 -12 -12 -12 -12 -13 -13 -13 -13 -13 -14 -14 -15 -15 -16
-12 -12 -12 -13 -12 -12 -13 -13 -13 -13 -13 -13 -13 -13 -13 -13 -13 -13 -12 -13 -12 -12 -13 -13 -13 -13 -13 -14 -14 -14 -15 -15 -15 -14 -12 -12 -11 -11 -11 -11 -12 -12 -12 -12 -12 -13 -13 -13 -14 -14 -14 -15 -15 -16
-12 -12 -12 -12 -12 -12 -13 -13 -13 -13 -13 -13 -13 -13 -13 -12 -12 -12 -12 -13 -13 -13 -13 -12 -12 -12 -13 -14 -14 -14 -14 -14 -13 -12 -12 -11 -11 -11 -11 -11 -12 -12 -12 -12 -13 -13 -13 -14 -14 -14 -15 -15 -16 -16
-12 -12 -12 -12 -12 -12 -13 -13 -13 -13 -13 -13 -13 -12 -12 -12 -12 -12 -12 -13 -13 -13 -13 -13 -13 -13 -13 -13 -13 -13 -14 -12 -11 -11 -12 -12 -11 -11 -11 -11 -12 -12 -12 -13 -13 -13 -13 -14 -14 -15 -15 -16 -16 -17
-13 -12 -12 -12 -12 -13 -13 -13 -13 -13 -13 -13 -12 -12 -13 -12 -13 -13 -13 -13 -13 -13 -13 -13 -13 -13 -13 -13 -13 -12 -12 -12 -12 -12 -12 -12 -12 -11 -11 -11 -12 -12 -13 -13 -13 -14 -14 -14 -15 -15 -16 -16 -17 -17
-12 -12 -13 -13 -13 -13 -13 -13 -13 -13 -13 -12 -12 -13 -13 -13 -14 -14 -13 -13 -13 -13 -13 -14 -14 -13 -13 -12 -11 -12 -12 -13 -13 -13 -13 -13 -12 -12 -11 -12 -12 -13 -13 -13 -14 -14 -15 -15 -15 -16 -16 -17 -17 -18
-12 -13 -13 -13 -13 -13 -13 -13 -13 -13 -13 -12 -13 -13 -13 -13 -13 -13 -12 -12 -12 -13 -14 -14 -14 -12 -12 -12 -13 -13 -13 -13 -13 -13 -14 -13 -13 -12 -12 -12 -13 -13 -14 -14 -14 -15 -15 -15 -16 -16 -17 -17 -18 -18
-13 -13 -13 -13 -13 -13 -13 -13 -13 -13 -12 -12 -12 -12 -12 -12 -12 -12 -12 -12 -13 -13 -14 -13 -11 -12 -13 -13 -14 -14 -14 -14 -14 -14 -14 -14 -14 -13 -13 -13 -13 -13 -14 -14 -15 -15 -15 -16 -16 -17 -17 -18 -18 -19
-12 -13 -13 -13 -13 -13 -13 -13 -12 -12 -13 -13 -12 -12 -12 -12 -12 -12 -12 -13 -13 -12 -12 -12 -13 -14 -14 -14 -14 -14 -14 -14 -14 -14 -14 -14 -14 -14 -13 -13 -14 -14 -14 -15 -15 -15 -16 -16 -17 -17 -18 -18 -19 -19
-12 -13 -13 -13 -13 -13 -13 -13 -13 -13 -13 -12 -12 -12 -12 -11 -12 -12 -12 -12 -12 -12 -13 -13 -13 -14 -14 -14 -14 -14 -14 -14 -14 -14 -14 -14 -14 -14 -14 -14 -14 -14 -14 -15 -15 -16 -16 -17 -17 -18 -18 -18 -19 -19
-13 -13 -13 -13 -13 -13 -12 -12 -12 -12 -13 -12 -12 -12 -12 -12 -13 -13 -13 -12 -12 -13 -13 -13 -14 -14 -14 -15 -15 -15 -14 -14 -14 -14 -14 -14 -14 -14 -13 -13 -14 -14 -15 -15 -16 -16 -17 -17 -18 -18 -18 -19 -19 -19
-13 -13 -13 -13 -13 -12 -12 -12 -12 -13 -13 -12 -13 -13 -13 -13 -13 -13 -13 -13 -14 -14 -14 -14 -14 -14 -14 -15 -14 -14 -14 -14 -14 -14 -14 -14 -14 -14 -14 -14 -14 -15 -15 -16 -16 -16 -17 -17 -18 -18 -18 -19 -19 -20
-13 -13 -13 -12 -12 -12 -12 -12 -12 -13 -13 -13 -13 -13 -13 -13 -13 -14 -14 -14 -14 -14 -14 -14 -14 -14 -14 -13 -14 -14 -14 -14 -14 -14 -14 -14 -14 -14 -14 -15 -15 -15 -16 -16 -16 -17 -17 -17 -18 -18 -18 -19 -19 -20
-12 -12 -12 -12 -12 -13 -13 -13 -13 -13 -13 -13 -13 -13 -13 -14 -14 -13 -14 -14 -14 -14 -14 -14 -14 -13 -14 -13 -14 -14 -14 -15 -14 -14 -14 -14 -14 -14 -14 -15 -15 -16 -16 -16 -17 -17 -17 -18 -18 -18 -18 -19 -20 -20
-12 -12 -12 -12 -13 -13 -13 -13 -13 -13 -13 -13 -13 -13 -13 -13 -13 -13 -14 -14 -15 -15 -14 -14 -13 -13 -13 -13 -14 -14 -14 -14 -14 -14 -14 -14 -14 -15 -15 -16 -16 -16 -16 -17 -17 -17 -18 -18 -18 -18 -19 -19 -20 -20
-12 -12 -12 -13 -13 -13 -13 -13 -13 -13 -13 -13 -13 -13 -13 -13 -13 -14 -14 -14 -14 -14 -13 -13 -13 -13 -13 -14 -14 -14 -14 -14 -14 -15 -15 -15 -15 -15 -15 -16 -17 -17 -17 -17 -17 -18 -18 -18 -19 -19 -19 -20 -20 -21
-13 -13 -13 -13 -13 -13 -13 -13 -13 -13 -13 -13 -14 -14 -14 -14 -14 -14 -14 -14 -14 -13 -13 -13 -13 -13 -13 -13 -14 -15 -15 -15 -15 -15 -15 -15 -15 -16 -16 -16 -17 -17 -17 -18 -18 -18 -18 -19 -19 -19 -20 -20 -21 -21
-13 -13 -13 -13 -13 -13 -13 -14 -14 -14 -14 -14 -14 -14 -14 -14 -14 -14 -14 -14 -13 -13 -13 -13 -13 -13 -13 -13 -14 -15 -15 -15 -15 -15 -15 -15 -16 -16 -16 -17 -17 -17 -18 -18 -18 -19 -19 -19 -20 -20 -20 -21 -21 -22
-14 -14 -14 -14 -14 -14 -14 -14 -14 -14 -14 -14 -14 -14 -14 -14 -14 -14 -14 -14 -14 -13 -14 -14 -13 -13 -13 -14 -15 -15 -15 -15 -15 -15 -15 -16 -16 -16 -17 -17 -18 -18 -18 -19 -19 -19 -20 -20 -20 -21 -21 -21 -22 -22
-14 -14 -14 -14 -14 -14 -14 -14 -14 -14 -14 -14 -14 -14 -14 -14 -14 -15 -14 -14 -14 -14 -14 -14 -14 -14 -14 -14 -15 -15 -15 -15 -15 -16 -16 -16 -17 -17 -17 -18 -18 -19 -19 -19 -20 -20 -21 -21 -21 -21 -22 -22 -22 -23
-14 -15 -15 -15 -15 -15 -14 -14 -14 -14 -14 -14 -14 -15 -15 -15 -15 -15 -15 -15 -15 -15 -15 -15 -15 -15 -15 -15 -15 -15 -15 -16 -16 -16 -16 -17 -17 -18 -18 -19 -19 -19 -20 -20 -21 -21 -21 -22 -22 -22 -22 -23 -23 -24

GFSWCAN_700_temp_303.txt.gz
Temp
-6 -6 -6 -6 -7 -7 -7 -7 -7 -8 -8 -8 -9 -9 -9 -9 -11 -13 -13 -13 -13 -13 -13 -13 -12 -13 -13 -13 -13 -13 -14 -13 -13 -13 -13 -13 -13 -12 -12 -12 -12 -12 -12 -12 -12 -13 -14 -11 -11 -12 -11 -12 -12 -13
-6 -6 -7 -7 -7 -7 -7 -8 -8 -9 -11 -11 -12 -12 -13 -12 -13 -13 -14 -14 -14 -13 -13 -13 -13 -13 -13 -13 -13 -13 -13 -14 -14 -13 -13 -13 -13 -13 -13 -13 -12 -12 -11 -12 -12 -11 -11 -12 -12 -12 -12 -12 -13 -13
-7 -7 -7 -7 -7 -8 -8 -9 -9 -10 -11 -12 -13 -13 -13 -14 -13 -13 -13 -14 -14 -14 -13 -13 -12 -12 -13 -13 -13 -13 -13 -13 -13 -13 -13 -13 -13 -13 -12 -12 -12 -12 -12 -12 -13 -12 -12 -13 -12 -13 -13 -13 -13 -13
-7 -8 -8 -9 -9 -9 -9 -9 -10 -11 -13 -13 -13 -13 -14 -14 -13 -13 -13 -14 -14 -14 -14 -12 -13 -12 -12 -13 -13 -13 -13 -13 -13 -13 -13 -13 -13 -13 -13 -13 -13 -13 -13 -13 -13 -13 -13 -13 -13 -13 -13 -14 -14 -14
-8 -9 -9 -9 -10 -10 -10 -10 -11 -12 -13 -13 -14 -14 -14 -14 -13 -13 -13 -14 -14 -14 -14 -13 -13 -12 -12 -12 -13 -12 -13 -12 -12 -13 -13 -13 -13 -13 -13 -14 -13 -14 -14 -14 -14 -14 -14 -14 -15 -14 -15 -15 -15 -15
-9 -10 -10 -10 -11 -11 -11 -12 -12 -13 -14 -14 -14 -14 -14 -14 -13 -14 -13 -13 -14 -14 -14 -14 -12 -12 -12 -11 -12 -12 -13 -12 -13 -13 -13 -14 -14 -14 -15 -15 -14 -15 -15 -15 -15 -15 -15 -15 -16 -15 -16 -15 -15 -15
-10 -10 -11 -12 -13 -13 -13 -13 -13 -13 -13 -14 -14 -14 -14 -14 -14 -14 -13 -14 -14 -14 -14 -15 -13 -12 -11 -12 -12 -12 -12 -13 -13 -14 -14 -14 -15 -15 -15 -14 -15 -15 -15 -15 -15 -15 -14 -14 -15 -15 -15 -15 -15 -15
-11 -11 -11 -13 -14 -13 -12 -13 -13 -13 -13 -14 -14 -14 -14 -14 -14 -13 -13 -13 -14 -15 -15 -15 -13 -12 -12 -12 -12 -13 -13 -13 -13 -14 -14 -14 -15 -14 -14 -14 -15 -16 -15 -14 -14 -14 -14 -14 -14 -14 -14 -14 -15 -15
-10 -11 -11 -12 -13 -13 -13 -12 -13 -13 -13 -14 -14 -14 -14 -14 -14 -13 -13 -14 -15 -15 -15 -14 -13 -13 -12 -13 -13 -13 -13 -14 -14 -14 -14 -14 -13 -13 -13 -13 -13 -13 -14 -14 -13 -13 -13 -14 -14 -14 -14 -14 -14 -15
-10 -10 -12 -12 -13 -13 -13 -12 -12 -13 -14 -14 -14 -14 -14 -13 -13 -13 -14 -14 -14 -15 -15 -14 -13 -13 -13 -13 -13 -14 -14 -14 -15 -14 -14 -13 -12 -13 -13 -12 -12 -12 -13 -13 -13 -13 -13 -13 -13 -14 -14 -14 -14 -15
-10 -11 -12 -13 -13 -13 -13 -12 -12 -13 -14 -14 -14 -14 -14 -13 -13 -14 -14 -14 -14 -14 -14 -13 -13 -13 -13 -13 -14 -14 -14 -15 -15 -14 -14 -13 -12 -12 -12 -12 -12 -12 -12 -13 -13 -12 -13 -13 -13 -13 -13 -14 -14 -15
-11 -11 -12 -12 -12 -13 -13 -12 -12 -13 -13 -14 -14 -14 -14 -13 -14 -14 -14 -14 -14 -13 -13 -12 -13 -13 -13 -13 -14 -15 -15 -15 -15 -14 -14 -12 -12 -12 -11 -11 -12 -12 -12 -12 -12 -12 -13 -13 -13 -13 -13 -14 -14 -15
-12 -13 -12 -12 -12 -13 -13 -12 -12 -13 -14 -14 -14 -14 -13 -13 -14 -14 -14 -13 -13 -13 -13 -13 -13 -13 -13 -13 -14 -14 -15 -15 -15 -14 -13 -12 -12 -11 -11 -11 -11 -12 -12 -12 -12 -12 -13 -13 -13 -13 -14 -14 -14 -15
-12 -12 -13 -12 -12 -13 -12 -12 -12 -13 -14 -14 -13 -13 -13 -13 -13 -13 -13 -13 -13 -13 -13 -13 -13 -13 -13 -14 -14 -14 -14 -15 -14 -14 -12 -12 -12 -11 -11 -11 -11 -12 -12 -12 -12 -12 -13 -13 -13 -14 -14 -14 -15 -15
-12 -13 -12 -12 -12 -13 -13 -13 -13 -14 -14 -14 -13 -13 -13 -13 -13 -13 -13 -13 -13 -13 -13 -13 -12 -12 -13 -14 -14 -14 -14 -14 -13 -12 -12 -12 -12 -12 -11 -11 -11 -12 -12 -12 -12 -13 -13 -13 -13 -14 -14 -15 -15 -16
-13 -12 -12 -12 -13 -13 -13 -13 -14 -14 -14 -13 -13 -12 -13 -13 -13 -13 -13 -13 -13 -13 -13 -13 -13 -13 -13 -13 -13 -13 -13 -12 -12 -12 -12 -12 -12 -12 -12 -11 -12 -12 -12 -12 -13 -13 -13 -14 -14 -14 -15 -15 -16 -16
-13 -12 -12 -12 -13 -13 -13 -13 -13 -13 -13 -13 -13 -13 -13 -13 -13 -13 -13 -13 -13 -13 -13 -13 -13 -13 -13 -13 -12 -12 -12 -12 -12 -13 -13 -13 -13 -13 -12 -12 -12 -12 -12 -13 -13 -13 -14 -14 -15 -15 -15 -16 -16 -17
-13 -12 -12 -13 -13 -13 -13 -13 -13 -13 -13 -13 -13 -13 -13 -13 -13 -13 -14 -14 -13 -13 -13 -14 -14 -13 -13 -12 -12 -12 -13 -13 -13 -13 -13 -13 -13 -13 -13 -13 -12 -12 -13 -13 -13 -14 -14 -15 -15 -15 -16 -16 -17 -17
-12 -12 -13 -13 -13 -13 -13 -13 -13 -13 -13 -13 -13 -13 -13 -13 -13 -13 -13 -13 -13 -13 -13 -14 -13 -12 -12 -13 -13 -13 -13 -14 -14 -14 -14 -14 -14 -14 -14 -13 -13 -13 -13 -13 -14 -14 -15 -15 -15 -16 -16 -17 -17 -18
-13 -13 -13 -13 -13 -13 -13 -13 -13 -13 -13 -12 -12 -12 -12 -13 -12 -12 -12 -12 -13 -13 -13 -13 -12 -13 -14 -14 -14 -14 -14 -15 -14 -14 -14 -15 -15 -14 -14 -14 -13 -13 -13 -14 -14 -15 -15 -15 -16 -16 -17 -17 -17 -18
-13 -13 -13 -13 -13 -13 -13 -13 -13 -13 -12 -12 -12 -12 -12 -12 -12 -12 -12 -12 -13 -12 -12 -12 -13 -14 -14 -14 -14 -14 -15 -15 -15 -15 -14 -14 -15 -15 -15 -15 -14 -14 -14 -15 -15 -15 -15 -16 -16 -16 -17 -17 -18 -18
-13 -13 -13 -14 -13 -13 -13 -13 -12 -12 -12 -12 -12 -12 -12 -12 -11 -12 -12 -12 -12 -12 -13 -13 -13 -13 -14 -14 -15 -15 -15 -15 -15 -15 -15 -15 -15 -15 -15 -15 -14 -15 -15 -15 -15 -15 -16 -16 -16 -17 -17 -17 -18 -18
-13 -13 -13 -13 -13 -13 -12 -12 -12 -12 -12 -12 -12 -12 -12 -12 -13 -13 -13 -12 -13 -13 -14 -14 -14 -14 -14 -15 -15 -15 -14 -14 -15 -14 -14 -15 -15 -15 -15 -14 -14 -15 -15 -15 -15 -16 -16 -16 -17 -17 -17 -18 -18 -19
-13 -13 -13 -13 -13 -12 -12 -12 -12 -12 -12 -12 -13 -13 -13 -13 -13 -13 -13 -13 -14 -14 -14 -14 -14 -14 -15 -14 -14 -14 -14 -14 -14 -14 -14 -14 -15 -15 -14 -14 -15 -15 -15 -15 -16 -16 -16 -17 -17 -17 -18 -18 -18 -19
-12 -12 -12 -12 -12 -12 -12 -12 -12 -13 -12 -13 -13 -13 -13 -13 -13 -14 -14 -13 -14 -14 -15 -15 -15 -15 -14 -13 -14 -14 -14 -14 -15 -14 -15 -15 -15 -14 -14 -15 -15 -15 -15 -16 -16 -16 -17 -17 -17 -18 -18 -18 -19 -19
-12 -12 -12 -12 -12 -12 -13 -13 -13 -13 -13 -13 -13 -13 -13 -13 -14 -13 -13 -14 -14 -15 -15 -14 -14 -13 -14 -13 -13 -14 -14 -14 -15 -15 -15 -14 -14 -14 -14 -14 -15 -15 -16 -16 -16 -17 -17 -17 -18 -18 -18 -18 -19 -19
-12 -12 -12 -12 -13 -13 -13 -13 -13 -13 -13 -13 -13 -13 -13 -13 -13 -13 -14 -14 -14 -15 -14 -14 -13 -13 -13 -13 -13 -14 -14 -14 -14 -14 -15 -15 -15 -15 -15 -15 -16 -16 -16 -17 -17 -17 -17 -18 -18 -18 -19 -19 -19 -20
-12 -12 -12 -13 -13 -13 -13 -13 -13 -13 -13 -13 -13 -13 -13 -13 -13 -14 -14 -14 -14 -14 -13 -13 -13 -13 -13 -13 -13 -14 -15 -14 -14 -15 -15 -15 -15 -15 -15 -15 -16 -16 -17 -17 -17 -18 -18 -18 -19 -19 -19 -19 -20 -20
-12 -13 -13 -13 -13 -13 -13 -13 -13 -13 -13 -14 -14 -14 -14 -14 -14 -14 -14 -14 -14 -14 -14 -13 -13 -12 -12 -12 -13 -14 -15 -15 -15 -15 -15 -15 -15 -16 -16 -16 -16 -16 -17 -18 -18 -18 -19 -19 -19 -19 -20 -20 -20 -21
-13 -13 -13 -13 -13 -14 -13 -14 -14 -14 -14 -14 -14 -14 -14 -14 -14 -14 -14 -14 -14 -14 -14 -13 -13 -13 -13 -13 -14 -14 -15 -15 -15 -15 -15 -16 -16 -16 -17 -17 -17 -17 -18 -18 -18 -19 -19 -19 -20 -20 -21 -21 -21 -21
-13 -14 -14 -14 -14 -14 -14 -14 -14 -14 -14 -14 -14 -14 -14 -14 -14 -14 -15 -15 -15 -14 -14 -14 -14 -14 -14 -14 -15 -15 -15 -15 -15 -16 -16 -16 -16 -17 -17 -17 -17 -18 -18 -19 -19 -19 -20 -20 -21 -21 -21 -21 -22 -22
-13 -14 -14 -15 -15 -15 -15 -15 -14 -14 -14 -15 -14 -15 -15 -15 -15 -15 -15 -15 -15 -15 -15 -15 -15 -15 -15 -15 -15 -15 -15 -15 -16 -16 -16 -16 -16 -17 -17 -18 -18 -19 -19 -19 -20 -20 -21 -21 -22 -22 -22 -22 -22 -23
-13 -14 -14 -14 -15 -15 -15 -15 -14 -14 -14 -15 -15 -15 -16 -15 -15 -15 -15 -15 -15 -15 -15 -15 -15 -15 -15 -15 -15 -15 -16 -16 -16 -16 -16 -17 -17 -18 -18 -18 -19 -19 -20 -20 -21 -21 -22 -22 -22 -23 -23 -23 -23 -23